This is the latest recevied weather packets stored in our database for station/object NC4J. If no packets are shown the sender has not sent any weather packets the latest 10 day(s).
| Time | Temp. | Humidity | Pressure | Rain* | Wind** | Luminosity | Snow |
|---|---|---|---|---|---|---|---|
| 1777551660 | 13.33° C | 74% | 1012.9 hPa | 0 mm | - | 10 W/m² | - |
| 1777551358 | 13.33° C | 74% | 1012.6 hPa | 0 mm | - | 12 W/m² | - |
| 1777551053 | 13.33° C | 75% | 1012.5 hPa | 0 mm | - | 9 W/m² | - |
| 1777550750 | 13.33° C | 74% | 1012.6 hPa | 0 mm | - | 7 W/m² | - |
| 1777550447 | 13.33° C | 74% | 1012.6 hPa | 0 mm | - | 5 W/m² | - |
| 1777550143 | 13.33° C | 75% | 1012.5 hPa | 0 mm | - | 3 W/m² | - |
| 1777549839 | 12.78° C | 76% | 1012.4 hPa | 0 mm | - | 3 W/m² | - |
| 1777549536 | 12.78° C | 78% | 1012.5 hPa | 0 mm | - | 4 W/m² | - |
| 1777549232 | 12.78° C | 77% | 1012.6 hPa | 0 mm | - | 4 W/m² | - |
| 1777548929 | 12.78° C | 79% | 1012.8 hPa | 0 mm | - | 4 W/m² | - |
| 1777548626 | 12.78° C | 78% | 1012.6 hPa | 0 mm | - | 3 W/m² | - |
| 1777548322 | 12.78° C | 79% | 1012.9 hPa | 0 mm | - | 3 W/m² | - |
| 1777548020 | 12.78° C | 81% | 1012.9 hPa | 0 mm | - | 3 W/m² | - |
| 1777547721 | 12.78° C | 79% | 1013 hPa | 0 mm | - | 2 W/m² | - |
| 1777547417 | 12.78° C | 78% | 1012.8 hPa | 0 mm | - | 2 W/m² | - |
| 1777547115 | 13.33° C | 77% | 1012.4 hPa | 0 mm | - | 1 W/m² | - |
| 1777546812 | 13.33° C | 77% | 1012.4 hPa | 0 mm | - | 1 W/m² | - |
| 1777546509 | 13.33° C | 76% | 1012.5 hPa | 0 mm | - | 1 W/m² | - |
| 1777546205 | 13.33° C | 77% | 1012.6 hPa | 0 mm | - | 1 W/m² | - |
| 1777545902 | 13.33° C | 75% | 1012.6 hPa | 0 mm | - | 0 W/m² | - |
| 1777545599 | 13.89° C | 73% | 1012 hPa | 0 mm | - | 0 W/m² | - |
| 1777545295 | 13.89° C | 72% | 1012.1 hPa | 0 mm | - | 0 W/m² | - |
| 1777544993 | 13.33° C | 72% | 1011.6 hPa | 0 mm | - | 0 W/m² | - |
| 1777544689 | 13.89° C | 72% | 1011.8 hPa | 0 mm | - | 0 W/m² | - |
| 1777544385 | 13.89° C | 72% | 1011.8 hPa | 0 mm | - | 0 W/m² | - |
* Rain latest hour (hover to see other rain measurements)
** Current wind speed in m/s (hover to see current wind gust speed)